Alexandria, MN

5:12 AM CST on December 16, 2019 (GMT -0600)
Chandler

Weather History for KAXN - October, 2019

Change the Weather History Date:

Thursday, October 31, 2019

  Actual Average Record
Temperature  
Mean Temperature 28 °F -  
Max Temperature 37 °F 49 °F 73 °F (1950)
Min Temperature 19 °F 31 °F 9 °F (1951)
Degree Days  
Heating Degree Days 37    
Moisture  
Dew Point 15 °F    
Average Humidity 58    
Maximum Humidity 81    
Minimum Humidity 36    
Precipitation  
Precipitation 0.00 in - - ()
Sea Level Pressure  
Sea Level Pressure 30.10 in    
Wind  
Wind Speed 6 mph ()    
Max Wind Speed 14 mph    
Max Gust Speed -    
Visibility 10.0 miles    
Events      
Averages and records for this station are not official NWS values.
T = Trace of Precipitation, MM = Missing Value Source: Averaged Metar Reports

Daily Weather History Graph

Daily Weather History Graph

Search for Another Location

Airport or City:

Astronomy

Oct. 31, 2019 Rise Set
Actual Time 8:00 AM CDT 6:09 PM CDT
Civil Twilight 7:29 AM CDT 6:40 PM CDT
Nautical Twilight 6:53 AM CDT 7:15 PM CDT
Astronomical Twilight 6:19 AM CDT 7:50 PM CDT
Moon 11:58 AM CDT (10/31) 8:57 PM CDT (10/31)
Length of Visible Light 11h 11m
Length of Day
10h 09m
Waxing Crescent, 16% of the Moon is Illuminated
Oct 31
Waxing Crescent
Nov 4
First Quarter
Nov 12
Full
Nov 19
Last Quarter
Nov 26
New

Hourly Weather History & Observations

Time (CDT) Temp. Windchill Dew Point Humidity Pressure Visibility Wind Dir Wind Speed Gust Speed Precip Events Conditions
12:53 AM 23.0 °F 14.7 °F 12.9 °F 65% 30.24 in 10.0 mi NNW 6.9 mph - N/A   Overcast
1:53 AM 24.1 °F 15.2 °F 14.0 °F 65% 30.23 in 10.0 mi NW 8.1 mph - N/A   Overcast
2:53 AM 24.1 °F 19.7 °F 12.9 °F 62% 30.22 in 10.0 mi NNW 3.5 mph - N/A   Overcast
3:53 AM 23.0 °F 15.8 °F 14.0 °F 68% 30.21 in 10.0 mi West 5.8 mph - N/A   Overcast
4:53 AM 23.0 °F 17.0 °F 14.0 °F 68% 30.20 in 10.0 mi NNW 4.6 mph - N/A   Overcast
5:53 AM 21.9 °F 17.2 °F 14.0 °F 72% 30.20 in 10.0 mi WNW 3.5 mph - N/A   Overcast
6:53 AM 21.9 °F 17.2 °F 15.1 °F 75% 30.18 in 10.0 mi SW 3.5 mph - N/A   Overcast
7:33 AM 21.0 °F 16.2 °F 12.9 °F 71% 30.10 in 10.0 mi SW 3.5 mph - N/A   Scattered Clouds
7:53 AM 19.9 °F - 12.9 °F 74% 30.18 in 10.0 mi North - - N/A   Clear
8:53 AM 21.0 °F - 16.0 °F 81% 30.17 in 10.0 mi North - - N/A   Clear
9:53 AM 25.0 °F 17.1 °F 16.0 °F 69% 30.17 in 10.0 mi SSW 6.9 mph - N/A   Clear
10:53 AM 27.0 °F 19.5 °F 16.0 °F 63% 30.15 in 10.0 mi SSW 6.9 mph - N/A   Clear
11:53 AM 28.9 °F 21.9 °F 17.1 °F 61% 30.13 in 10.0 mi SW 6.9 mph - N/A   Clear
12:53 PM 32.0 °F 22.1 °F 17.1 °F 54% 30.11 in 10.0 mi WSW 13.8 mph - N/A   Clear
1:53 PM 34.0 °F 26.6 °F 16.0 °F 48% 30.07 in 10.0 mi WSW 9.2 mph - N/A   Clear
2:53 PM 35.1 °F 26.9 °F 15.1 °F 44% 30.04 in 10.0 mi SW 11.5 mph - N/A   Clear
3:53 PM 37.0 °F 29.8 °F 12.0 °F 36% 30.03 in 10.0 mi SW 10.4 mph - N/A   Clear
4:53 PM 36.0 °F 28.0 °F 12.0 °F 37% 30.01 in 10.0 mi SW 11.5 mph - N/A   Clear
5:53 PM 34.0 °F 27.2 °F 12.9 °F 42% 30.01 in 10.0 mi SSW 8.1 mph - N/A   Clear
6:53 PM 32.0 °F 25.6 °F 14.0 °F 48% 30.01 in 10.0 mi SW 6.9 mph - N/A   Scattered Clouds
7:53 PM 34.0 °F 26.6 °F 14.0 °F 44% 30.01 in 10.0 mi SW 9.2 mph - N/A   Overcast
8:53 PM 34.0 °F 26.0 °F 15.1 °F 46% 30.00 in 10.0 mi SW 10.4 mph - N/A   Overcast
9:53 PM 34.0 °F 25.5 °F 15.1 °F 46% 29.97 in 10.0 mi SW 11.5 mph - N/A   Overcast
10:53 PM 32.0 °F 23.6 °F 15.1 °F 50% 29.96 in 10.0 mi SW 10.4 mph - N/A   Clear
11:53 PM 32.0 °F 24.2 °F 17.1 °F 54% 29.95 in 10.0 mi SW 9.2 mph - N/A   Clear